User: anonymous   Login
Location: Fort Frances
(48.6170°N, 93.4170°W)
Time: 02:07:01
(UTC-06:00)
Language:

Iridium 53 - Orbit

View from above orbital plane
View from above orbital plane
View from above satellite
View from above satellite

Ground track
Ground track

The orbit data is extracted from the following two-line orbital elements,

1 25173U 98010E   16038.50298393  .00000013  00000-0 -23531-5 0  9997
2 25173  86.3979 197.5258 0001916  87.9858 272.1557 14.34216316940723
Epoch (UTC): 07 February 2016 12:04:17
Eccentricity: 0.0001916
inclination: 86.3979°
perigee height: 776 km
apogee height: 779 km
right ascension of ascending node: 197.5258°
argument of perigee: 87.9858°
revolutions per day: 14.34216316
mean anomaly at epoch: 272.1557°
orbit number at epoch: 94072

The dashed part of the orbit path shows where the satellite is in the earth's shadow,  

DLR